Regional Weather Roundup
Issued by NWS

Home | Current Version | Previous Version | Text Only | Print | Product List | Glossary Off
Versions: 1 2 3 4 5 6 7 8 9 10 11 12 13 14 15 16 17 18 19 20 21 22 23 24 25 26 27 28 29 30 31 32 33 34 35 36 37 38 39 40 41 42 43 44 45 46 47 48 49 50

000
ASUS43 KOAX 191102
RWRNE

WEATHER ROUNDUP FOR NEBRASKA
NATIONAL WEATHER SERVICE OMAHA NE
600 AM CDT TUE SEP 19 2017

NOTES: SATELLITE DATA IS BEING USED TO AUGMENT CLOUD COVER ABOVE
       12000 FEET.
       "FAIR" INDICATES FEW OR NO CLOUDS BELOW 12,000 FEET WITH NO
       SIGNIFICANT WEATHER AND/OR OBSTRUCTIONS TO VISIBILITY.


NEZ001>004-019>022-054>056-191200-
NEBRASKA PANHANDLE

CITY           SKY/WX    TMP DP  RH WIND       PRES   REMARKS
SCOTTSBLUFF    CLOUDY    55  48  77 E7        29.68F
ALLIANCE       CLOUDY    56  52  86 S8        29.68F
CHADRON        CLOUDY    66  47  50 S28G33    29.59F
GORDON         FAIR      62  55  76 S8        29.66F
KIMBALL        CLOUDY    54  46  74 S7        29.72F
SIDNEY         CLEAR     49  45  86 CALM      29.71F
$$

NEZ057>060-069>072-079>082-191200-
SOUTHWEST NEBRASKA

CITY           SKY/WX    TMP DP  RH WIND       PRES   REMARKS
NORTH PLATTE   CLEAR     59  57  93 E9        29.71F
IMPERIAL       CLOUDY    63  58  83 S13       29.70F
LEXINGTON      CLEAR     61  58  92 E7        29.74F
MCCOOK         CLEAR     67  64  90 S9        29.71F
OGALLALA       CLOUDY    63  57  81 E3        29.68F
$$

NEZ005>010-023>029-035>040-094-191200-
NORTH CENTRAL NEBRASKA

CITY           SKY/WX    TMP DP  RH WIND       PRES   REMARKS
VALENTINE      CLEAR     63  59  87 S6        29.68F
AINSWORTH      CLOUDY    60  60 100 S9        29.71F
BROKEN BOW     FOG       52  52 100 SE5       29.75S VSB 1/2
O`NEILL        MOCLDY    61  61 100 SE8       29.75S FOG
ORD            FOG       61  59  93 SE5       29.74F VSB 1/4
THEDFORD       PTCLDY    64  59  84 SE10      29.73S
$$

NEZ041-046>049-061>064-073>077-083>087-191200-
SOUTH CENTRAL NEBRASKA

CITY           SKY/WX    TMP DP  RH WIND       PRES   REMARKS
GRAND ISLAND   CLEAR     63  63 100 S9        29.77F
AURORA         CLEAR     62  62 100 S6        29.78S
HASTINGS       CLEAR     64  61  90 S8        29.78F
HEBRON         CLEAR     67  64  93 S6        29.80S
HOLDREGE       CLEAR     63  60  91 S7        29.75F
KEARNEY        CLEAR     62  61  96 S6        29.76F
YORK           CLEAR     64  64 100 S7        29.79S
$$

NEZ011>018-030>034-042>045-191200-
NORTHEAST NEBRASKA

CITY           SKY/WX    TMP DP  RH WIND       PRES   REMARKS
NORFOLK        CLOUDY    64  64 100 SE8       29.78S FOG
ALBION         LGT RAIN  63  63  99 SE6       29.77F VSB 1/4
BLAIR          CLOUDY    67  66  96 S10       29.82S FOG
COLUMBUS       CLEAR     66  64  93 SE5       29.79F
FREMONT        CLOUDY    67  66  97 SE8       29.81F FOG
TEKAMAH        CLOUDY    67  65  93 SE10      29.81S FOG
WAYNE          CLOUDY    67  64  91 S10       29.79F FOG
$$

NEZ050>053-065>068-078-088>093-191200-
SOUTHEAST NEBRASKA

CITY           SKY/WX    TMP DP  RH WIND       PRES   REMARKS
LINCOLN        CLEAR     67  64  90 S10       29.81S
OMAHA EPPLEY   CLOUDY    68  64  87 SE13      29.82F
BEATRICE       CLEAR     67  65  95 SE7       29.81S
FALLS CITY     CLEAR     66  65  96 SE6       29.83F FOG
NEBRASKA CITY  CLOUDY    67  67 100 S7        29.84S FOG
PLATTSMOUTH    CLOUDY    67  67 100 S10       29.84R FOG
$$

NEZ044-045-051>053-067-191200-
OMAHA AREA

CITY           SKY/WX    TMP DP  RH WIND       PRES   REMARKS
OMAHA EPPLEY   CLOUDY    68  64  87 SE13      29.82F
BLAIR          CLOUDY    67  66  96 S10       29.82S FOG
FREMONT        CLOUDY    67  66  97 SE8       29.81F FOG
MILLARD        CLOUDY    69  67  95 SE8       29.82S FOG
OFFUTT AFB     CLOUDY    67  65  94 SE9       29.82S
PLATTSMOUTH    CLOUDY    67  67 100 S10       29.84R FOG
WAHOO          CLOUDY    67  66  99 SE9       29.80F FOG
$$




USA.gov is the U.S. government's official web portal to all federal, state and local government web resources and services.